This demonstration page uses our WeatherBlox Daily Observations layout. Learn more.

Left ArrowRight Arrow

Hourly Observations for April 15, 2020

Temp ( °F °C ) Dew Point ( °F °C ) Humidity (%) Winds ( mph kmh ) Pressure ( in mb ) Visibility ( mi km ) Precip ( " mm )
12:52 am 00:52 Mostly Clear 31 -0.6 24 -4.4 76 76 Calm 30.12 1020 10 16 0.00 0.00
1:52 am 01:52 Clear 27 -2.8 24 -4.4 89 89 NNW 3 6 30.13 1020 10 16 0.00 0.00
2:52 am 02:52 Clear 25 -3.9 24 -4.4 96 96 Calm 30.12 1020 10 16 0.00 0.00
3:52 am 03:52 Clear 28 -2.2 23 -5 81 81 Calm 30.12 1020 10 16 0.00 0.00
4:52 am 04:52 Clear 23 -5 20 -6.7 88 88 Calm 30.13 1020 10 16 0.00 0.00
5:52 am 05:52 Clear 24 -4.4 21 -6.1 88 88 Calm 30.12 1020 10 16 0.00 0.00
6:04 am 06:04 Mostly Clear 22 -5.6 20 -6.7 92 92 NNW 3 6 30.18 1022 1 2 0.00 0.00
6:08 am 06:08 Partly Cloudy with Patchy Fog 23 -5 22 -5.6 96 96 Calm 30.18 1022 7 11 0.00 0.00
6:52 am 06:52 Partly Cloudy with Patchy Fog 24 -4.4 22 -5.6 91 91 Calm 30.14 1021 9 14 0.00 0.00
7:52 am 07:52 Mostly Sunny 27 -2.8 24 -4.4 89 89 Calm 30.15 1021 10 16 0.00 0.00
8:52 am 08:52 Partly Cloudy 32 0 27 -2.8 82 82 SW 5 7 30.16 1022 10 16 0.00 0.00
9:52 am 09:52 Partly Cloudy 37 2.8 21 -6.1 52 52 SSW 6 9 30.15 1021 10 16 0.00 0.00
10:52 am 10:52 Partly Cloudy 39 3.9 18 -7.8 43 43 SW 10 17 30.15 1021 10 16 0.00 0.00
11:52 am 11:52 Partly Cloudy 43 6.1 21 -6.1 42 42 WSW 10 17 30.15 1021 10 16 0.00 0.00
12:52 pm 12:52 Partly Cloudy 47 8.3 14 -10 26 26 WNW 9 15 30.12 1020 10 16 0.00 0.00
1:52 pm 13:52 Partly Cloudy 49 9.4 15 -9.4 26 26 NW 16 26 30.11 1020 10 16 0.00 0.00
2:52 pm 14:52 Partly Cloudy 50 10 14 -10 24 24 WNW 15 24 30.09 1019 10 16 0.00 0.00
3:52 pm 15:52 Partly Cloudy 50 10 14 -10 24 24 NNW 10 17 30.09 1019 10 16 0.00 0.00
4:52 pm 16:52 Mostly Sunny 51 10.6 15 -9.4 24 24 NNW 9 15 30.09 1019 10 16 0.00 0.00
5:52 pm 17:52 Mostly Sunny 49 9.4 15 -9.4 26 26 NNW 9 15 30.10 1019 10 16 0.00 0.00
6:52 pm 18:52 Mostly Sunny 49 9.4 15 -9.4 26 26 VRB 5 7 30.10 1019 10 16 0.00 0.00
7:52 pm 19:52 Mostly Cloudy 46 7.8 17 -8.3 31 31 ENE 7 11 30.11 1020 10 16 0.00 0.00
8:52 pm 20:52 Cloudy 45 7.2 18 -7.8 34 34 NE 12 19 30.11 1020 10 16 0.00 0.00
9:52 pm 21:52 Cloudy 44 6.7 19 -7.2 37 37 ENE 16 26 30.16 1021 10 16 0.00 0.00
10:52 pm 22:52 Cloudy 42 5.6 22 -5.6 45 45 ENE 18 30 30.19 1022 10 16 0.00 0.00
11:52 pm 23:52 Cloudy 39 3.9 24 -4.4 55 55 NE 13 20 30.23 1024 10 16 0.00 0.00

Powered by AerisWeather